| time (UTC) | temp C | wind direction | speed KPH | gust KPH | rain 1hr cm | rain 24hr cm | rain mn cm | humidity % | barometer mb |
| 20260507103404 | 13 | 101 | 4.8 | 11.3 | 0.00 | 0.00 | 0.00 | 68 | 1015.6 |
| 20260507102904 | 14 | 80 | 9.7 | 19.3 | 0.00 | 0.00 | 0.00 | 68 | 1015.6 |
| 20260507102404 | 13 | 141 | 4.8 | 12.9 | 0.00 | 0.00 | 0.00 | 67 | 1015.6 |
| 20260507101903 | 13 | 127 | 8.0 | 16.1 | 0.00 | 0.00 | 0.00 | 68 | 1015.7 |
| 20260507101404 | 14 | 131 | 8.0 | 14.5 | 0.00 | 0.00 | 0.00 | 67 | 1015.7 |
| 20260507100904 | 14 | 132 | 9.7 | 22.5 | 0.00 | 0.00 | 0.00 | 68 | 1015.7 |
| 20260507100404 | 14 | 132 | 6.4 | 12.9 | 0.00 | 0.00 | 0.00 | 69 | 1015.7 |
| 20260507095404 | 15 | 183 | 4.8 | 11.3 | 0.00 | 0.00 | 0.00 | 67 | 1015.6 |
| 20260507094903 | 14 | 103 | 8.0 | 14.5 | 0.00 | 0.00 | 0.00 | 68 | 1015.6 |
| 20260507094405 | 15 | 103 | 6.4 | 14.5 | 0.00 | 0.00 | 0.00 | 67 | 1015.6 |
| 20260507093903 | 15 | 122 | 9.7 | 19.3 | 0.00 | 0.00 | 0.00 | 64 | 1015.6 |
| 20260507093404 | 15 | 66 | 9.7 | 16.1 | 0.00 | 0.00 | 0.00 | 67 | 1015.6 |
| 20260507092903 | 15 | 76 | 6.4 | 14.5 | 0.00 | 0.00 | 0.00 | 68 | 1015.6 |
| 20260507092403 | 15 | 38 | 6.4 | 11.3 | 0.00 | 0.00 | 0.00 | 69 | 1015.6 |
| 20260507091904 | 14 | 151 | 3.2 | 11.3 | 0.00 | 0.00 | 0.00 | 67 | 1015.6 |
| 20260507091403 | 14 | 56 | 6.4 | 14.5 | 0.00 | 0.00 | 0.00 | 66 | 1015.6 |
| 20260507090904 | 14 | 138 | 4.8 | 11.3 | 0.00 | 0.00 | 0.00 | 68 | 1015.6 |
| 20260507090404 | 14 | 95 | 4.8 | 11.3 | 0.00 | 0.00 | 0.00 | 67 | 1015.6 |
| 20260507085904 | 13 | 166 | 3.2 | 19.3 | 0.00 | 0.00 | 0.00 | 68 | 1015.6 |
| 20260507085404 | 13 | 116 | 6.4 | 19.3 | 0.00 | 0.00 | 0.00 | 72 | 1015.7 |
| 20260507084904 | 13 | 108 | 4.8 | 11.3 | 0.00 | 0.00 | 0.00 | 73 | 1015.7 |
| 20260507084404 | 13 | 96 | 3.2 | 11.3 | 0.00 | 0.00 | 0.00 | 72 | 1015.6 |
| 20260507083904 | 13 | 141 | 4.8 | 11.3 | 0.00 | 0.00 | 0.00 | 70 | 1015.6 |
| 20260507083404 | 14 | 125 | 4.8 | 9.7 | 0.00 | 0.00 | 0.00 | 73 | 1015.6 |
| 20260507082409 | 12 | 163 | 3.2 | 12.9 | 0.00 | 0.00 | 0.00 | 76 | 1015.6 |
| 20260507081404 | 12 | 104 | 8.0 | 12.9 | 0.00 | 0.00 | 0.00 | 75 | 1015.6 |
| 20260507080904 | 13 | 138 | 6.4 | 14.5 | 0.00 | 0.00 | 0.00 | 75 | 1015.4 |
| 20260507080403 | 13 | 182 | 3.2 | 11.3 | 0.00 | 0.00 | 0.00 | 77 | 1015.4 |
| 20260507075904 | 13 | 72 | 3.2 | 9.7 | 0.00 | 0.00 | 0.00 | 78 | 1015.4 |
| 20260507075404 | 12 | 49 | 3.2 | 12.9 | 0.00 | 0.00 | 0.00 | 79 | 1015.4 |
| 20260507074904 | 12 | 184 | 1.6 | 8.0 | 0.00 | 0.00 | 0.00 | 79 | 1015.4 |
| 20260507074404 | 12 | 48 | 8.0 | 14.5 | 0.00 | 0.00 | 0.00 | 80 | 1015.3 |
| 20260507073904 | 12 | 208 | 6.4 | 14.5 | 0.00 | 0.00 | 0.00 | 79 | 1015.3 |
| 20260507073403 | 12 | 137 | 8.0 | 12.9 | 0.00 | 0.00 | 0.00 | 81 | 1015.3 |
| 20260507072904 | 12 | 185 | 3.2 | 9.7 | 0.00 | 0.00 | 0.00 | 82 | 1015.2 |
| 20260507071904 | 11 | 89 | 8.0 | 11.3 | 0.00 | 0.00 | 0.00 | 83 | 1015.2 |
| 20260507071404 | 11 | 118 | 9.7 | 16.1 | 0.00 | 0.00 | 0.00 | 83 | 1015.2 |
| 20260507070903 | 11 | 74 | 3.2 | 20.9 | 0.00 | 0.00 | 0.00 | 85 | 1015.2 |
| 20260507065904 | 11 | 85 | 3.2 | 11.3 | 0.00 | 0.00 | 0.00 | 88 | 1015.2 |
| 20260507065403 | 10 | 54 | 3.2 | 11.3 | 0.00 | 0.00 | 0.00 | 89 | 1015.2 |
| 20260507064903 | 10 | 81 | 8.0 | 19.3 | 0.00 | 0.00 | 0.00 | 90 | 1015.2 |
| 20260507064404 | 10 | 51 | 8.0 | 12.9 | 0.00 | 0.00 | 0.00 | 90 | 1015.2 |
| 20260507063904 | 10 | 71 | 4.8 | 11.3 | 0.00 | 0.00 | 0.00 | 91 | 1015.2 |
| 20260507063404 | 9 | 87 | 1.6 | 9.7 | 0.00 | 0.00 | 0.00 | 92 | 1015.2 |
| 20260507062404 | 8 | 67 | 1.6 | 4.8 | 0.00 | 0.00 | 0.00 | 92 | 1015.2 |
| 20260507061904 | 8 | 29 | 0.0 | 8.0 | 0.00 | 0.00 | 0.00 | 93 | 1015.1 |
| 20260507061403 | 8 | 83 | 3.2 | 8.0 | 0.00 | 0.00 | 0.00 | 93 | 1015.0 |
| 20260507060904 | 7 | 74 | 0.0 | 4.8 | 0.00 | 0.00 | 0.00 | 93 | 1015.0 |
| 20260507055404 | 6 | 339 | 0.0 | 1.6 | 0.00 | 0.00 | 0.00 | 92 | 1015.0 |
| 20260507054904 | 5 | 339 | 0.0 | 0.0 | 0.00 | 0.00 | 0.00 | 92 | 1015.0 |
| 20260507054404 | 5 | 320 | 0.0 | 0.0 | 0.00 | 0.00 | 0.00 | 92 | 1015.0 |
| 20260507053904 | 5 | 320 | 0.0 | 0.0 | 0.00 | 0.00 | 0.00 | 92 | 1015.0 |
| 20260507053404 | 5 | 320 | 0.0 | 0.0 | 0.00 | 0.00 | 0.00 | 92 | 1015.0 |
| 20260507052404 | 5 | 301 | 0.0 | 0.0 | 0.00 | 0.00 | 0.00 | 92 | 1014.9 |
| 20260507051904 | 5 | 308 | 0.0 | 1.6 | 0.00 | 0.00 | 0.00 | 92 | 1014.9 |
| 20260507051404 | 4 | 295 | 0.0 | 0.0 | 0.00 | 0.00 | 0.00 | 92 | 1014.8 |
| 20260507050904 | 3 | 295 | 0.0 | 0.0 | 0.00 | 0.00 | 0.00 | 92 | 1014.8 |
| 20260507050404 | 3 | 295 | 0.0 | 1.6 | 0.00 | 0.00 | 0.00 | 92 | 1014.8 |
| 20260507045905 | 3 | 210 | 0.0 | 0.0 | 0.00 | 0.00 | 0.00 | 92 | 1014.8 |
| 20260507045404 | 3 | 210 | 0.0 | 1.6 | 0.00 | 0.00 | 0.00 | 92 | 1014.8 |
| 20260507044904 | 3 | 141 | 0.0 | 0.0 | 0.00 | 0.00 | 0.00 | 92 | 1014.8 |
| 20260507043904 | 3 | 141 | 0.0 | 0.0 | 0.00 | 0.00 | 0.00 | 91 | 1014.7 |
| 20260507043404 | 3 | 141 | 0.0 | 0.0 | 0.00 | 0.00 | 0.00 | 92 | 1014.7 |
| 20260507042903 | 3 | 141 | 0.0 | 0.0 | 0.00 | 0.00 | 0.00 | 92 | 1014.7 |
| 20260507041404 | 3 | 104 | 0.0 | 0.0 | 0.00 | 0.00 | 0.00 | 91 | 1014.7 |
| 20260507040904 | 3 | 79 | 0.0 | 0.0 | 0.00 | 0.00 | 0.00 | 91 | 1014.7 |
| 20260507035903 | 3 | 79 | 0.0 | 0.0 | 0.00 | 0.00 | 0.00 | 91 | 1014.7 |
| 20260507035403 | 3 | 79 | 0.0 | 0.0 | 0.00 | 0.00 | 0.00 | 91 | 1014.7 |
| 20260507034904 | 3 | 80 | 0.0 | 0.0 | 0.00 | 0.00 | 0.00 | 91 | 1014.7 |
| 20260507034404 | 3 | 80 | 0.0 | 0.0 | 0.00 | 0.00 | 0.00 | 91 | 1014.7 |
| 20260507033904 | 3 | 80 | 0.0 | 0.0 | 0.00 | 0.00 | 0.00 | 91 | 1014.6 |
| 20260507033404 | 3 | 80 | 0.0 | 0.0 | 0.00 | 0.00 | 0.00 | 91 | 1014.6 |
| 20260507032904 | 3 | 80 | 0.0 | 0.0 | 0.00 | 0.00 | 0.00 | 91 | 1014.6 |
| 20260507032404 | 3 | 80 | 0.0 | 0.0 | 0.00 | 0.00 | 0.00 | 91 | 1014.5 |
| 20260507031904 | 3 | 80 | 0.0 | 0.0 | 0.00 | 0.00 | 0.00 | 91 | 1014.5 |
| 20260507030904 | 3 | 80 | 0.0 | 0.0 | 0.00 | 0.00 | 0.00 | 90 | 1014.5 |
| 20260507025904 | 3 | 80 | 0.0 | 0.0 | 0.00 | 0.00 | 0.00 | 90 | 1014.6 |
| 20260507025404 | 3 | 80 | 0.0 | 0.0 | 0.00 | 0.00 | 0.00 | 90 | 1014.6 |
| 20260507024904 | 4 | 80 | 0.0 | 0.0 | 0.00 | 0.00 | 0.00 | 90 | 1014.4 |
| 20260507024403 | 4 | 80 | 0.0 | 0.0 | 0.00 | 0.00 | 0.00 | 90 | 1014.4 |
| 20260507023904 | 5 | 80 | 0.0 | 0.0 | 0.00 | 0.00 | 0.00 | 90 | 1014.4 |
| 20260507023404 | 5 | 80 | 0.0 | 0.0 | 0.00 | 0.00 | 0.00 | 91 | 1014.4 |
| 20260507022904 | 4 | 80 | 0.0 | 0.0 | 0.00 | 0.00 | 0.00 | 90 | 1014.4 |
| 20260507022404 | 4 | 80 | 0.0 | 0.0 | 0.00 | 0.00 | 0.00 | 90 | 1014.4 |
| 20260507021404 | 4 | 80 | 0.0 | 0.0 | 0.00 | 0.00 | 0.00 | 90 | 1014.4 |
| 20260507020904 | 4 | 80 | 0.0 | 0.0 | 0.00 | 0.00 | 0.00 | 90 | 1014.3 |
| 20260507020403 | 4 | 79 | 0.0 | 0.0 | 0.00 | 0.00 | 0.00 | 90 | 1014.3 |
| 20260507015904 | 4 | 80 | 0.0 | 0.0 | 0.00 | 0.00 | 0.00 | 89 | 1014.3 |
| 20260507015404 | 4 | 80 | 0.0 | 0.0 | 0.00 | 0.00 | 0.00 | 89 | 1014.3 |
| 20260507014904 | 4 | 80 | 0.0 | 0.0 | 0.00 | 0.00 | 0.00 | 90 | 1014.3 |
| 20260507014403 | 4 | 80 | 0.0 | 0.0 | 0.00 | 0.00 | 0.00 | 90 | 1014.3 |
| 20260507013404 | 4 | 80 | 0.0 | 0.0 | 0.00 | 0.00 | 0.00 | 89 | 1014.2 |
| 20260507012903 | 5 | 80 | 0.0 | 0.0 | 0.00 | 0.00 | 0.00 | 88 | 1014.2 |
| 20260507012404 | 5 | 80 | 0.0 | 0.0 | 0.00 | 0.00 | 0.00 | 89 | 1014.2 |
| 20260507011903 | 5 | 80 | 0.0 | 0.0 | 0.00 | 0.00 | 0.00 | 89 | 1014.3 |
| 20260507011404 | 5 | 80 | 0.0 | 0.0 | 0.00 | 0.00 | 0.00 | 88 | 1014.4 |
| 20260507010904 | 5 | 80 | 0.0 | 0.0 | 0.00 | 0.00 | 0.00 | 88 | 1014.4 |
| 20260507010404 | 5 | 80 | 0.0 | 0.0 | 0.00 | 0.00 | 0.00 | 88 | 1014.4 |
| 20260507005903 | 5 | 80 | 0.0 | 0.0 | 0.00 | 0.00 | 0.00 | 88 | 1014.4 |
| 20260507005404 | 5 | 80 | 0.0 | 0.0 | 0.00 | 0.00 | 0.00 | 88 | 1014.3 |
| 20260507003904 | 5 | 80 | 0.0 | 0.0 | 0.00 | 0.00 | 0.00 | 87 | 1014.4 |
| 20260507002903 | 6 | 80 | 0.0 | 0.0 | 0.00 | 0.00 | 0.00 | 87 | 1014.4 |
| 20260507002404 | 6 | 80 | 0.0 | 0.0 | 0.00 | 0.00 | 0.00 | 87 | 1014.4 |
| 20260507001903 | 6 | 80 | 0.0 | 0.0 | 0.00 | 0.00 | 0.00 | 87 | 1014.4 |
| 20260507001404 | 6 | 80 | 0.0 | 0.0 | 0.00 | 0.00 | 0.00 | 87 | 1014.4 |
| 20260506235403 | 6 | 80 | 0.0 | 0.0 | 0.00 | 0.00 | 0.00 | 86 | 1014.5 |
| 20260506233904 | 7 | 80 | 0.0 | 0.0 | 0.00 | 0.00 | 0.00 | 86 | 1014.4 |
| 20260506233403 | 7 | 80 | 0.0 | 0.0 | 0.00 | 0.00 | 0.00 | 86 | 1014.4 |
| 20260506232904 | 7 | 80 | 0.0 | 0.0 | 0.00 | 0.00 | 0.00 | 86 | 1014.4 |
| 20260506232404 | 7 | 80 | 0.0 | 0.0 | 0.00 | 0.00 | 0.00 | 85 | 1014.4 |
| 20260506231904 | 7 | 80 | 0.0 | 0.0 | 0.00 | 0.00 | 0.00 | 85 | 1014.4 |
| 20260506231404 | 7 | 80 | 0.0 | 0.0 | 0.00 | 0.00 | 0.00 | 85 | 1014.4 |
| 20260506230903 | 7 | 80 | 0.0 | 0.0 | 0.00 | 0.00 | 0.00 | 84 | 1014.3 |
| 20260506230404 | 7 | 80 | 0.0 | 0.0 | 0.00 | 0.00 | 0.00 | 83 | 1014.2 |
| 20260506225904 | 8 | 80 | 0.0 | 0.0 | 0.00 | 0.00 | 0.00 | 83 | 1014.2 |
| 20260506225404 | 8 | 79 | 0.0 | 0.0 | 0.00 | 0.00 | 0.00 | 83 | 1014.2 |
| 20260506224904 | 8 | 80 | 0.0 | 0.0 | 0.00 | 0.00 | 0.00 | 83 | 1014.2 |
| 20260506224404 | 8 | 79 | 0.0 | 0.0 | 0.00 | 0.00 | 0.00 | 82 | 1014.2 |
| 20260506223904 | 8 | 79 | 0.0 | 0.0 | 0.00 | 0.00 | 0.00 | 82 | 1014.2 |
| 20260506223404 | 8 | 80 | 0.0 | 0.0 | 0.00 | 0.00 | 0.00 | 81 | 1014.0 |
| 20260506222904 | 9 | 80 | 0.0 | 0.0 | 0.00 | 0.00 | 0.00 | 80 | 1014.0 |
| 20260506222404 | 9 | 79 | 0.0 | 0.0 | 0.00 | 0.00 | 0.00 | 81 | 1014.0 |
| 20260506221904 | 9 | 79 | 0.0 | 0.0 | 0.00 | 0.00 | 0.00 | 80 | 1014.0 |
| 20260506221404 | 9 | 80 | 0.0 | 0.0 | 0.00 | 0.00 | 0.00 | 80 | 1014.0 |
| 20260506220904 | 9 | 80 | 0.0 | 0.0 | 0.00 | 0.00 | 0.00 | 79 | 1014.0 |
| 20260506220404 | 10 | 80 | 0.0 | 0.0 | 0.00 | 0.00 | 0.00 | 79 | 1014.0 |
| 20260506215904 | 10 | 80 | 0.0 | 0.0 | 0.00 | 0.00 | 0.00 | 79 | 1014.0 |
| 20260506215403 | 10 | 80 | 0.0 | 0.0 | 0.00 | 0.00 | 0.00 | 78 | 1014.0 |
| 20260506214904 | 10 | 80 | 0.0 | 0.0 | 0.00 | 0.00 | 0.00 | 78 | 1014.0 |
| 20260506214404 | 10 | 80 | 0.0 | 0.0 | 0.00 | 0.00 | 0.00 | 77 | 1014.0 |
| 20260506213904 | 10 | 80 | 0.0 | 1.6 | 0.00 | 0.00 | 0.00 | 76 | 1014.0 |
| 20260506213404 | 10 | 80 | 1.6 | 4.8 | 0.00 | 0.00 | 0.00 | 76 | 1014.0 |
| 20260506212903 | 10 | 77 | 0.0 | 4.8 | 0.00 | 0.00 | 0.00 | 76 | 1014.0 |
| 20260506212403 | 10 | 91 | 0.0 | 4.8 | 0.00 | 0.00 | 0.00 | 76 | 1013.6 |
| 20260506211904 | 11 | 95 | 1.6 | 4.8 | 0.00 | 0.00 | 0.00 | 76 | 1013.6 |
| 20260506211404 | 11 | 54 | 1.6 | 8.0 | 0.00 | 0.00 | 0.00 | 76 | 1013.6 |
| 20260506210904 | 11 | 63 | 0.0 | 0.0 | 0.00 | 0.00 | 0.00 | 76 | 1013.6 |
| 20260506205903 | 11 | 71 | 0.0 | 0.0 | 0.00 | 0.00 | 0.00 | 76 | 1013.6 |
| 20260506205403 | 11 | 71 | 0.0 | 0.0 | 0.00 | 0.00 | 0.00 | 75 | 1013.6 |
| 20260506204904 | 11 | 71 | 0.0 | 0.0 | 0.00 | 0.00 | 0.00 | 75 | 1013.6 |
| 20260506204404 | 11 | 71 | 0.0 | 0.0 | 0.00 | 0.00 | 0.00 | 75 | 1013.6 |
| 20260506203904 | 11 | 75 | 0.0 | 0.0 | 0.00 | 0.00 | 0.00 | 77 | 1013.6 |
| 20260506203404 | 11 | 75 | 0.0 | 0.0 | 0.00 | 0.00 | 0.00 | 77 | 1013.6 |
| 20260506202903 | 11 | 231 | 0.0 | 0.0 | 0.00 | 0.00 | 0.00 | 78 | 1013.4 |
| 20260506202404 | 11 | 232 | 0.0 | 0.0 | 0.00 | 0.00 | 0.00 | 77 | 1013.4 |
| 20260506201904 | 11 | 232 | 0.0 | 0.0 | 0.00 | 0.00 | 0.00 | 77 | 1013.4 |
| 20260506201403 | 11 | 232 | 0.0 | 0.0 | 0.00 | 0.00 | 0.00 | 76 | 1013.4 |
| 20260506200904 | 11 | 232 | 0.0 | 0.0 | 0.00 | 0.00 | 0.00 | 76 | 1013.4 |
| 20260506200404 | 11 | 232 | 0.0 | 0.0 | 0.00 | 0.00 | 0.00 | 75 | 1013.2 |
| 20260506194904 | 11 | 232 | 0.0 | 0.0 | 0.00 | 0.00 | 0.00 | 74 | 1013.2 |
| 20260506194404 | 11 | 232 | 1.6 | 1.6 | 0.00 | 0.00 | 0.00 | 73 | 1013.1 |
| 20260506193904 | 11 | 232 | 0.0 | 0.0 | 0.00 | 0.00 | 0.00 | 73 | 1013.1 |
| 20260506193404 | 12 | 232 | 0.0 | 0.0 | 0.00 | 0.00 | 0.00 | 72 | 1013.1 |
| 20260506192904 | 12 | 232 | 0.0 | 0.0 | 0.00 | 0.00 | 0.00 | 72 | 1013.1 |
| 20260506192404 | 12 | 232 | 0.0 | 0.0 | 0.00 | 0.00 | 0.00 | 71 | 1013.0 |
| 20260506191903 | 12 | 232 | 0.0 | 3.2 | 0.00 | 0.00 | 0.00 | 70 | 1013.0 |
| 20260506191404 | 12 | 233 | 0.0 | 3.2 | 0.00 | 0.00 | 0.00 | 69 | 1013.0 |
| 20260506190904 | 12 | 230 | 1.6 | 4.8 | 0.00 | 0.00 | 0.00 | 69 | 1013.0 |
| 20260506190404 | 12 | 230 | 1.6 | 3.2 | 0.00 | 0.00 | 0.00 | 68 | 1013.0 |
| 20260506185904 | 12 | 229 | 1.6 | 4.8 | 0.00 | 0.00 | 0.00 | 68 | 1012.9 |
| 20260506185404 | 12 | 228 | 3.2 | 4.8 | 0.00 | 0.00 | 0.00 | 69 | 1012.9 |
| 20260506184405 | 12 | 284 | 3.2 | 8.0 | 0.00 | 0.00 | 0.00 | 71 | 1012.7 |
| 20260506183904 | 12 | 247 | 0.0 | 1.6 | 0.00 | 0.00 | 0.00 | 71 | 1012.7 |
| 20260506183403 | 12 | 247 | 1.6 | 4.8 | 0.00 | 0.00 | 0.00 | 71 | 1012.7 |
| 20260506182904 | 12 | 272 | 4.8 | 8.0 | 0.00 | 0.00 | 0.00 | 71 | 1012.4 |
| 20260506182404 | 12 | 260 | 1.6 | 3.2 | 0.00 | 0.00 | 0.00 | 71 | 1012.4 |
| 20260506181904 | 12 | 264 | 3.2 | 8.0 | 0.00 | 0.00 | 0.00 | 71 | 1012.4 |
| 20260506181404 | 12 | 251 | 3.2 | 8.0 | 0.00 | 0.00 | 0.00 | 70 | 1012.4 |
| 20260506180903 | 12 | 266 | 4.8 | 8.0 | 0.00 | 0.00 | 0.00 | 69 | 1012.4 |
| 20260506180403 | 13 | 245 | 3.2 | 8.0 | 0.00 | 0.00 | 0.00 | 69 | 1012.4 |
| 20260506175404 | 13 | 261 | 3.2 | 4.8 | 0.00 | 0.00 | 0.00 | 66 | 1012.4 |
| 20260506174904 | 13 | 276 | 1.6 | 4.8 | 0.00 | 0.00 | 0.00 | 67 | 1012.4 |
| 20260506174404 | 13 | 229 | 1.6 | 4.8 | 0.00 | 0.00 | 0.00 | 66 | 1012.3 |
| 20260506173903 | 13 | 257 | 1.6 | 4.8 | 0.00 | 0.00 | 0.00 | 67 | 1012.2 |
| 20260506172404 | 13 | 225 | 1.6 | 4.8 | 0.00 | 0.00 | 0.00 | 66 | 1012.3 |
| 20260506171903 | 13 | 262 | 1.6 | 4.8 | 0.00 | 0.00 | 0.00 | 66 | 1012.3 |
| 20260506171404 | 13 | 258 | 1.6 | 8.0 | 0.00 | 0.00 | 0.00 | 66 | 1012.2 |
| 20260506170903 | 13 | 273 | 3.2 | 8.0 | 0.00 | 0.00 | 0.00 | 66 | 1012.2 |
| 20260506170403 | 13 | 287 | 3.2 | 8.0 | 0.00 | 0.00 | 0.00 | 65 | 1012.2 |
| 20260506165904 | 13 | 277 | 6.4 | 11.3 | 0.00 | 0.00 | 0.00 | 64 | 1012.2 |
| 20260506165404 | 13 | 281 | 6.4 | 8.0 | 0.00 | 0.00 | 0.00 | 63 | 1012.2 |
| 20260506164904 | 13 | 279 | 8.0 | 11.3 | 0.00 | 0.00 | 0.00 | 62 | 1012.2 |
| 20260506164403 | 13 | 275 | 8.0 | 11.3 | 0.00 | 0.00 | 0.00 | 62 | 1012.2 |
| 20260506163904 | 13 | 315 | 4.8 | 12.9 | 0.00 | 0.00 | 0.00 | 63 | 1012.2 |
| 20260506163404 | 13 | 267 | 8.0 | 14.5 | 0.00 | 0.00 | 0.00 | 63 | 1012.2 |
| 20260506162904 | 14 | 289 | 8.0 | 11.3 | 0.00 | 0.00 | 0.00 | 60 | 1012.2 |
| 20260506162404 | 14 | 277 | 6.4 | 14.5 | 0.00 | 0.00 | 0.00 | 57 | 1012.2 |
| 20260506161904 | 14 | 304 | 8.0 | 12.9 | 0.00 | 0.00 | 0.00 | 53 | 1012.2 |
| 20260506161404 | 14 | 308 | 8.0 | 11.3 | 0.00 | 0.00 | 0.00 | 53 | 1012.2 |
| 20260506160903 | 14 | 310 | 6.4 | 8.0 | 0.00 | 0.00 | 0.00 | 52 | 1012.2 |
| 20260506160403 | 14 | 354 | 1.6 | 8.0 | 0.00 | 0.00 | 0.00 | 51 | 1012.2 |
| 20260506155904 | 14 | 2 | 1.6 | 4.8 | 0.00 | 0.00 | 0.00 | 51 | 1012.2 |
| 20260506155404 | 14 | 352 | 4.8 | 9.7 | 0.00 | 0.00 | 0.00 | 52 | 1012.2 |
| 20260506154904 | 14 | 333 | 4.8 | 8.0 | 0.00 | 0.00 | 0.00 | 54 | 1012.2 |
| 20260506154404 | 14 | 348 | 3.2 | 8.0 | 0.00 | 0.00 | 0.00 | 52 | 1012.2 |
| 20260506153904 | 14 | 37 | 3.2 | 9.7 | 0.00 | 0.00 | 0.00 | 54 | 1012.3 |
| 20260506153404 | 14 | 338 | 8.0 | 11.3 | 0.00 | 0.00 | 0.00 | 52 | 1012.3 |
| 20260506152904 | 14 | 1 | 8.0 | 12.9 | 0.00 | 0.00 | 0.00 | 51 | 1012.3 |
| 20260506152404 | 15 | 341 | 6.4 | 9.7 | 0.00 | 0.00 | 0.00 | 52 | 1012.3 |
| 20260506151903 | 15 | 319 | 4.8 | 8.0 | 0.00 | 0.00 | 0.00 | 53 | 1012.3 |
| 20260506151404 | 15 | 15 | 4.8 | 9.7 | 0.00 | 0.00 | 0.00 | 52 | 1012.3 |
| 20260506150903 | 15 | 5 | 4.8 | 8.0 | 0.00 | 0.00 | 0.00 | 53 | 1012.3 |
| 20260506150404 | 14 | 326 | 6.4 | 9.7 | 0.00 | 0.00 | 0.00 | 54 | 1012.3 |
| 20260506145904 | 14 | 320 | 8.0 | 11.3 | 0.00 | 0.00 | 0.00 | 51 | 1012.3 |
| 20260506145404 | 15 | 323 | 4.8 | 8.0 | 0.00 | 0.00 | 0.00 | 51 | 1012.3 |
| 20260506144904 | 15 | 226 | 3.2 | 8.0 | 0.00 | 0.00 | 0.00 | 50 | 1012.4 |
| 20260506144403 | 15 | 324 | 6.4 | 11.3 | 0.00 | 0.00 | 0.00 | 52 | 1012.4 |
| 20260506143904 | 15 | 246 | 3.2 | 8.0 | 0.00 | 0.00 | 0.00 | 50 | 1012.4 |
| 20260506143404 | 15 | 306 | 6.4 | 11.3 | 0.00 | 0.00 | 0.00 | 52 | 1012.4 |
| 20260506142404 | 15 | 311 | 8.0 | 12.9 | 0.00 | 0.00 | 0.00 | 50 | 1012.4 |
| 20260506141904 | 15 | 328 | 6.4 | 11.3 | 0.00 | 0.00 | 0.00 | 50 | 1012.4 |
| 20260506141404 | 15 | 306 | 8.0 | 11.3 | 0.00 | 0.00 | 0.00 | 51 | 1012.4 |
| 20260506140904 | 15 | 342 | 9.7 | 14.5 | 0.00 | 0.00 | 0.00 | 49 | 1012.4 |
| 20260506140404 | 15 | 300 | 9.7 | 19.3 | 0.00 | 0.00 | 0.00 | 48 | 1012.4 |
| 20260506135903 | 16 | 336 | 12.9 | 19.3 | 0.00 | 0.00 | 0.00 | 47 | 1012.5 |
| 20260506135404 | 16 | 324 | 11.3 | 16.1 | 0.00 | 0.00 | 0.00 | 48 | 1012.5 |
| 20260506134904 | 16 | 294 | 14.5 | 19.3 | 0.00 | 0.00 | 0.00 | 51 | 1012.5 |
| 20260506134404 | 16 | 349 | 9.7 | 12.9 | 0.00 | 0.00 | 0.00 | 47 | 1012.5 |
| 20260506133904 | 16 | 10 | 11.3 | 20.9 | 0.00 | 0.00 | 0.00 | 50 | 1012.5 |
| 20260506133403 | 15 | 314 | 11.3 | 19.3 | 0.00 | 0.00 | 0.00 | 47 | 1012.5 |
| 20260506132404 | 16 | 341 | 9.7 | 20.9 | 0.00 | 0.00 | 0.00 | 46 | 1012.5 |
| 20260506131404 | 16 | 307 | 6.4 | 14.5 | 0.00 | 0.00 | 0.00 | 47 | 1012.5 |
| 20260506130404 | 15 | 13 | 9.7 | 20.9 | 0.00 | 0.00 | 0.00 | 49 | 1012.5 |
| 20260506125903 | 16 | 338 | 8.0 | 16.1 | 0.00 | 0.00 | 0.00 | 50 | 1012.5 |
| 20260506125403 | 15 | 292 | 9.7 | 20.9 | 0.00 | 0.00 | 0.00 | 54 | 1012.5 |
| 20260506124905 | 15 | 283 | 11.3 | 16.1 | 0.00 | 0.00 | 0.00 | 55 | 1012.5 |
| 20260506124404 | 15 | 301 | 12.9 | 19.3 | 0.00 | 0.00 | 0.00 | 54 | 1012.5 |
| 20260506123904 | 15 | 287 | 12.9 | 16.1 | 0.00 | 0.00 | 0.00 | 54 | 1012.5 |
| 20260506122403 | 15 | 317 | 11.3 | 16.1 | 0.00 | 0.00 | 0.00 | 52 | 1012.5 |
| 20260506121903 | 15 | 297 | 12.9 | 19.3 | 0.00 | 0.00 | 0.00 | 56 | 1012.6 |
| 20260506121403 | 15 | 326 | 9.7 | 19.3 | 0.00 | 0.00 | 0.00 | 54 | 1012.7 |
| 20260506120404 | 15 | 282 | 9.7 | 20.9 | 0.00 | 0.00 | 0.00 | 57 | 1012.7 |
| 20260506115403 | 14 | 317 | 9.7 | 14.5 | 0.00 | 0.00 | 0.00 | 58 | 1012.8 |
| 20260506114905 | 15 | 330 | 9.7 | 12.9 | 0.00 | 0.00 | 0.00 | 56 | 1012.8 |
| 20260506113404 | 15 | 284 | 9.7 | 24.1 | 0.00 | 0.00 | 0.00 | 58 | 1012.8 |
| 20260506112904 | 14 | 295 | 11.3 | 16.1 | 0.00 | 0.00 | 0.00 | 61 | 1012.8 |
| 20260506112403 | 14 | 291 | 12.9 | 20.9 | 0.00 | 0.00 | 0.00 | 58 | 1012.8 |
| 20260506111904 | 14 | 314 | 9.7 | 14.5 | 0.00 | 0.00 | 0.00 | 59 | 1012.8 |
| 20260506110904 | 14 | 283 | 8.0 | 20.9 | 0.00 | 0.00 | 0.00 | 57 | 1012.8 |
| 20260506110404 | 14 | 36 | 8.0 | 14.5 | 0.00 | 0.00 | 0.00 | 57 | 1012.8 |
| 20260506105904 | 14 | 40 | 9.7 | 16.1 | 0.00 | 0.00 | 0.00 | 57 | 1012.8 |
| 20260506105404 | 14 | 332 | 11.3 | 19.3 | 0.00 | 0.00 | 0.00 | 57 | 1012.8 |
| 20260506104403 | 14 | 334 | 11.3 | 16.1 | 0.00 | 0.00 | 0.00 | 56 | 1012.8 |
| 20260506103904 | 14 | 331 | 9.7 | 16.1 | 0.00 | 0.00 | 0.00 | 57 | 1012.8 |